This is the latest recevied weather packets stored in our database for station/object N0NB. If no packets are shown the sender has not sent any weather packets the latest 10 day(s).
| Time | Temp. | Humidity | Pressure | Rain* | Wind** | Luminosity | Snow |
|---|---|---|---|---|---|---|---|
| 1788399316 | 28.89° C | 60% | 1008.9 hPa | 0 mm | - | 0 W/m² | - |
| 1788398716 | 29.44° C | 60% | 1008.8 hPa | 0 mm | - | 0 W/m² | - |
| 1788398116 | 29.44° C | 60% | 1008.8 hPa | 0 mm | - | 0 W/m² | - |
| 1788397516 | 29.44° C | 60% | 1008.7 hPa | 0 mm | - | 0 W/m² | - |
| 1788396916 | 30° C | 59% | 1008.8 hPa | 0 mm | - | 5 W/m² | - |
| 1788396316 | 30.56° C | 57% | 1008.9 hPa | 0 mm | - | 12 W/m² | - |
| 1788395716 | 31.11° C | 56% | 1009.1 hPa | 0 mm | - | 22 W/m² | - |
| 1788395116 | 31.67° C | 55% | 1009 hPa | 0 mm | - | 37 W/m² | - |
| 1788394516 | 32.22° C | 53% | 1009.1 hPa | 0 mm | - | 57 W/m² | - |
| 1788393916 | 32.78° C | 52% | 1009.1 hPa | 0 mm | - | 83 W/m² | - |
| 1788393316 | 33.33° C | 50% | 1009.2 hPa | 0 mm | - | 113 W/m² | - |
| 1788392716 | 33.89° C | 48% | 1009.2 hPa | 0 mm | - | 142 W/m² | - |
| 1788392116 | 33.89° C | 48% | 1009.2 hPa | 0 mm | - | 175 W/m² | - |
| 1788390916 | 34.44° C | 45% | 1009.3 hPa | 0 mm | - | 238 W/m² | - |
| 1788390316 | 35° C | 42% | 1009.3 hPa | 0 mm | - | 267 W/m² | - |
| 1788389716 | 35° C | 42% | 1009.3 hPa | 0 mm | - | 298 W/m² | - |
| 1788389116 | 35.56° C | 42% | 1009.3 hPa | 0 mm | - | 327 W/m² | - |
| 1788388516 | 35.56° C | 42% | 1009.3 hPa | 0 mm | - | 354 W/m² | - |
| 1788387916 | 35.56° C | 40% | 1009.3 hPa | 0 mm | - | 383 W/m² | - |
| 1788387316 | 36.11° C | 41% | 1009.4 hPa | 0 mm | - | 412 W/m² | - |
| 1788386716 | 36.11° C | 39% | 1009.4 hPa | 0 mm | - | 437 W/m² | - |
| 1788386116 | 36.11° C | 42% | 1009.5 hPa | 0 mm | - | 463 W/m² | - |
| 1788385516 | 36.11° C | 41% | 1009.6 hPa | 0 mm | - | 489 W/m² | - |
| 1788384915 | 36.11° C | 43% | 1009.6 hPa | 0 mm | - | 512 W/m² | - |
| 1788384316 | 36.11° C | 42% | 1009.6 hPa | 0 mm | - | 535 W/m² | - |
* Rain latest hour (hover to see other rain measurements)
** Current wind speed in m/s (hover to see current wind gust speed)